Regional Weather Roundup
Issued by NWS

Home | Current Version | Previous Version | Text Only | Print | Product List | Glossary Off
Versions: 1 2 3 4 5 6 7 8 9 10 11 12 13 14 15 16 17 18 19 20 21 22 23 24 25 26 27 28 29 30 31 32 33 34 35 36 37 38 39 40 41 42 43 44 45 46 47 48 49 50

000
ASUS43 KLOT 142058
RWRIL

ILLINOIS REGIONAL WEATHER ROUNDUP
NATIONAL WEATHER SERVICE CHICAGO/ROMEOVILLE IL
300 PM CST SUN FEB 14 2016

NOTE: "FAIR" INDICATES FEW OR NO CLOUDS BELOW 12,000 FEET WITH NO
SIGNIFICANT WEATHER AND/OR OBSTRUCTIONS TO VISIBILITY.

* THESE STATIONS ARE NOT UNDER NWS QUALITY CONTROL. THEY ALSO MAY NOT
  REPORT WEATHER SUCH AS PRECIPITATION OR FOG.

ILZ001-002-007-009-015-016-024-142200-
NORTHWEST ILLINOIS

CITY           SKY/WX    TMP DP  RH WIND       PRES   REMARKS
MOLINE         LGT SNOW  20  15  81 SE13G22   30.00F VSB 1   WCI   7
$$

ILZ003-004-008-010-011-017-018-142200-
NORTH CENTRAL ILLINOIS

CITY           SKY/WX    TMP DP  RH WIND       PRES   REMARKS
ROCKFORD       NOT AVBL
$$

ILZ005-006-012>014-019>023-142200-
NORTHEAST ILLINOIS

CITY           SKY/WX    TMP DP  RH WIND       PRES   REMARKS
CHICAGO-OHARE  LGT SNOW  18  13  80 SE14      30.13F WCI   4
CHICAGO-MIDWAY NOT AVBL
AURORA         LGT SNOW  18  13  80 SE16      30.10F VSB 3/4 WCI   3
WAUKEGAN       NOT AVBL
DUPAGE AIRPORT LGT SNOW  18  10  73 SE10      30.10F WCI   6
WHEELING       LGT SNOW  17  13  84 SE8       30.15F VSB 3/4 WCI   7
NORTHERLY ISL    N/A     17  14  88 SE18        N/A  WCI   1
$$

LMZ740>746-142200-
SOUTHERN LAKE MICHIGAN

STATION/POSITION SKY/WX   TEMP    WIND        PRES    VSBY  WAVE
                          AIR SEA DIR/SP/G                  HT/PER
                          (F)     (DEG/KT/KT) (MB)    (MI)  (FT/S)
HARRISON CRIB              17     130/ 20/ 22   N/A
BURNHAM HARBOR             17     120/ 15/ 17   N/A
CALUMET HARBOR             16     110/ 16/ 20 1020.9F
BURNS HARBOR               16     110/ 13/ 19 1022.0F
MICHIGAN CITY              14      90/ 11/ 14   N/A
$$

ILZ025>027-034>036-040-047-049-050-058-095>099-142200-
WEST-CENTRAL ILLINOIS

CITY           SKY/WX    TMP DP  RH WIND       PRES   REMARKS
$$

ILZ028>032-037-038-041>044-048-051>054-059>061-142200-
CENTRAL ILLINOIS

CITY           SKY/WX    TMP DP  RH WIND       PRES   REMARKS
PEORIA         LGT SNOW  20  14  77 SE9G21    30.02F WCI   9
SPRINGFIELD    CLOUDY    23  18  81 SE16      30.00F WCI  10
TAYLORVILLE    NOT AVBL
$$

ILZ033-039-045-046-055>057-062-063-142200-
EAST-CENTRAL ILLINOIS

CITY           SKY/WX    TMP DP  RH WIND       PRES   REMARKS
$$

ILZ079-100>102-142200-
SOUTHWEST ILLINOIS

CITY           SKY/WX    TMP DP  RH WIND       PRES   REMARKS
ALTON          CLOUDY    25  19  80 SE12      30.00F WCI  14
$$

ILZ064>066-069>071-074>076-080>082-084>086-088>090-092>094-142200-
SOUTH-CENTRAL ILLINOIS

CITY           SKY/WX    TMP DP  RH WIND       PRES   REMARKS
CARBONDALE     NOT AVBL
MARION         CLOUDY    28  25  86 S12       30.04F FOG     WCI  18
$$

ILZ067-068-072-073-078-083-087-091-142200-
SOUTHEAST ILLINOIS

CITY           SKY/WX    TMP DP  RH WIND       PRES   REMARKS
$$

ABBREVIATIONS USED IN REMARKS
   TC - TEMPERATURE IN CELSIUS
  WCI - WIND CHILL INDEX
   HX - HEAT INDEX
  VSB - VISIBILITY
$$




USA.gov is the U.S. government's official web portal to all federal, state and local government web resources and services.